Hourly Data Report for September 11, 2017

All times are specified in Local Standard Time (LST). Add 1 hour to adjust for Daylight Saving Time where and when it is observed.

GRISE FIORD CLIMATE
NUNAVUT

76°25'22.040" N
82°54'08.020" W
44.50 m
2402351
71971
NGC

Download Data

Hourly Data (September 2017)
Hourly Data Report for September 11, 2017
Temp Definition
°C
Dew Point Temp Definition
°C
Rel Hum Definition
%
Wind Dir Definition
10's deg

Wind Spd Definition
km/h
Visibility Definition
km
Stn Press Definition
kPa
Hmdx Definition


Wind Chill Definition


Weather Definition


TIME
00:00 -3.0 -7.7 70 23 8   99.55   -6 LegendNANA
01:00 -2.9 -7.5 70 23 5   99.58   -5 LegendNANA
02:00 -2.6 -7.5 69 22 5   99.60   -5 LegendNANA
03:00 -2.5 -7.2 70 24 10   99.66   -6 LegendNANA
04:00 -2.7 -7.4 70 23 5   99.70   -5 LegendNANA
05:00 -2.7 -7.3 71 32 19   99.74   -8 LegendNANA
06:00 -2.2 -7.6 66 27 10   99.78   -6 LegendNANA
07:00 -2.5 -7.5 68 33 27   99.82   -9 LegendNANA
08:00 -2.9 -7.5 71 32 28   99.88   -10 LegendNANA
09:00 -2.4 -7.2 70 11 5   99.93   -4 LegendNANA
10:00 -1.4 -7.7 62 34 9   99.98   -5 LegendNANA
11:00 -1.3 -7.1 65 26 13   100.04   -6 LegendNANA
12:00 -0.9 -7.2 62 32 8   100.08   -4 LegendNANA
13:00 -0.6 -6.2 66 26 9   100.11   -4 LegendNANA
14:00 -1.1 -5.3 73 27 18   100.18   -6 LegendNANA
15:00 -0.4 -4.5 74 24 15   100.25   -5 LegendNANA
16:00 -1.0 -4.9 74 23 9   100.31   -4 LegendNANA
17:00 -1.2 -4.5 78 25 8   100.41   -4 LegendNANA
18:00 -1.3 -4.5 79 0 1   100.44   -2 LegendNANA
19:00 -1.4 -4.1 82 23 4   100.48   -3 LegendNANA
20:00 -1.3 -4.1 81 3 2   100.50   -2 LegendNANA
21:00 -1.4 -3.9 83 36 2   100.52   -2 LegendNANA
22:00 -1.5 -3.4 86 11 2   100.51   -2 LegendNANA
23:00 -1.6 -3.0 90   0   100.54     LegendNANA

Notes on Data Quality.

Legend

  • E = Estimated
  • M = Missing
  • NA = Not Available
  • ‡ = Partner data that is not subject to review by the National Climate Archives
Date modified: